FW1087 Weather Reports


time (UTC)temp
F
wind
direction
speed
knots
gust
knots
rain 1hr
in
rain 24hr
in
rain mn
in
humidity
%
barometer
mb
20260507191802 49 316 3.5 12.2 0.00 0.21 0.01 53 1008.1
20260507184802 50 319 6.1 14.8 0.00 0.21 0.01 50 1008.0
20260507181803 49 266 3.5 10.4 0.00 0.22 0.01 52 1008.0
20260507180303 50 339 6.1 12.2 0.00 0.24 0.01 54 1008.0
20260507173304 48 321 5.2 11.3 0.00 0.28 0.01 55 1008.4
20260507164801 48 280 4.3 11.3 0.00 0.33 0.01 62 1008.4
20260507161802 46 311 4.3 9.6 0.00 0.41 0.01 68 1008.7
20260507154803 46 255 3.5 8.7 0.00 0.45 0.01 71 1008.8
20260507151802 46 281 2.6 8.7 0.00 0.49 0.01 74 1009.1
20260507144801 43 324 3.5 8.7 0.00 0.50 0.01 75 1009.2
20260507141801 44 253 3.5 7.8 0.00 0.51 0.01 79 1009.1
20260507134801 42 207 2.6 7.0 0.00 0.54 0.01 83 1008.9
20260507131803 40 258 2.6 8.7 0.00 0.59 0.01 93 1009.2
20260507124802 39 308 0.9 3.5 0.00 0.62 0.01 99 1009.2
20260507121802 39 345 0.0 0.0 0.00 0.67 0.01 99 1009.1
20260507114801 39 345 0.0 0.0 0.00 0.70 0.01 99 1009.0
20260507111804 38 345 0.0 0.0 0.00 0.70 0.01 99 1008.9
20260507104801 38 345 0.0 0.9 0.00 0.71 0.01 99 1008.9
20260507101759 37 345 0.0 0.9 0.00 0.71 0.01 99 1008.9
20260507100300 36 346 0.0 1.7 0.01 0.73 0.01 98 1008.8
20260507091757 37 345 0.0 0.9 0.01 0.74 0.01 98 1008.5
20260507084758 38 345 0.0 1.7 0.00 0.74 0.00 98 1008.8
20260507081755 37 345 0.9 1.7 0.00 0.76 0.00 98 1009.0
20260507074755 38 345 0.0 0.9 0.00 0.77 0.00 98 1008.9
20260507071754 38 345 0.0 0.9 0.00 0.78 0.00 98 1008.7
20260507064754 38 345 0.9 1.7 0.00 0.79 0.00 98 1008.6
20260507061800 38 345 0.0 1.7 0.00 0.81 0.00 98 1008.6
20260507061754 38 345 0.0 1.7 0.00 0.80 0.00 98 1008.8
20260507051756 39 316 0.0 0.9 0.00 0.85 0.00 98 1009.4
20260507050255 40 316 0.0 0.9 0.00 0.88 0.00 98 1009.5
20260507041758 40 315 0.9 3.5 0.00 0.98 0.95 98 1009.8
20260507041752 40 316 0.0 0.9 0.00 0.92 0.00 98 1009.6
20260507033254 41 330 1.7 2.6 0.00 1.01 0.95 98 1009.8
20260507024753 41 307 0.9 2.6 0.01 1.02 0.95 98 1009.3
20260507021754 41 329 0.9 2.6 0.05 1.02 0.95 98 1009.4
20260507014754 41 317 1.7 4.3 0.09 1.01 0.94 98 1010.2
20260507011752 42 356 0.0 2.6 0.08 0.97 0.90 98 1009.8
20260507010255 42 4 0.0 1.7 0.05 0.92 0.85 98 1009.3
20260507001754 42 3 0.0 1.7 0.02 0.89 0.82 98 1008.9
20260506234750 42 16 0.0 3.5 0.01 0.87 0.80 98 1008.5
20260506231749 42 74 0.0 3.5 0.01 0.87 0.80 97 1008.4
20260506224748 42 22 0.9 5.2 0.00 0.86 0.79 97 1008.4
20260506221746 42 27 0.0 2.6 0.00 0.86 0.79 97 1008.3
20260506214747 42 49 0.9 3.5 0.02 0.87 0.79 97 1008.3
20260506211749 42 35 0.9 4.3 0.01 0.97 0.77 97 1008.2
20260506211744 42 18 0.9 5.2 0.02 0.87 0.79 97 1008.4
20260506201744 42 355 0.9 2.6 0.02 0.97 0.77 97 1008.0
20260506194744 42 335 0.9 3.5 0.01 0.96 0.76 97 1007.9